Regional Weather Roundup
Issued by NWS Newport/Morehead, NC

Current Version | Previous Version | Graphics & Text | Print | Product List | Glossary Off
Versions: 1 2 3 4 5 6 7 8 9 10 11 12 13 14 15 16 17 18 19 20 21 22 23 24 25 26 27 28 29 30 31 32 33 34 35 36 37 38 39 40 41 42 43 44 45 46 47 48 49 50

000
ASUS42 KMHX 200422
RWRMHX
WEATHER ROUNDUP FOR EASTERN NORTH CAROLINA
NATIONAL WEATHER SERVICE NEWPORT/MOREHEAD CITY NC
1100 PM EST FRI JAN 19 2018

NOTE: "FAIR" INDICATES FEW OR NO CLOUDS BELOW 12,000 FEET
WITH NO SIGNIFICANT WEATHER AND/OR OBSTRUCTIONS TO VISIBILITY

NCZ015>017-031-032-045>047-102-103-200500-
NORTH COAST

CITY           SKY/WX    TMP DP  RH WIND       PRES   REMARKS
EDENTON        FAIR      42  24  49 SW3       30.16S
ELIZABETH CITY FAIR      36  27  69 SW9       30.14F
KITTY HAWK     FAIR      38  26  63 CALM      30.14S
MANTEO         FAIR      35  31  86 SW3       30.16S

$$

NCZ045>047-081-094-103-104-200500-
CENTRAL COAST

CITY           SKY/WX    TMP DP  RH WIND       PRES   REMARKS
FRISCO         FAIR      48  38  68 W8G17     30.18S

$$

NCZ095-097-098-100-101-200500-
SOUTHERN COAST

CITY           SKY/WX    TMP DP  RH WIND       PRES   REMARKS
BEAUFORT       FAIR      45  36  70 W7        30.20S
CEDAR ISLAND   NOT AVBL
JACKSONVILLE   FAIR      41  29  62 W6        30.20R
PINEY ISLAND   NOT AVBL
WILMINGTON     FAIR      38  33  82 SW3       30.21S


$$

NCZ011>013-027>030-043-044-078>080-089-090>093-098-200500-
COASTAL PLAIN

CITY           SKY/WX    TMP DP  RH WIND       PRES   REMARKS
AHOSKIE        FAIR      33  22  63 CALM      30.14F
CLINTON        FAIR      32  26  78 CALM      30.20S
ELIZABETHTOWN  NOT AVBL
GOLDSBORO      FAIR      34  25  70 CALM      30.16F
GREENVILLE     FAIR      32  27  80 CALM      30.18S
HAVELOCK       NOT AVBL
KENANSVILLE    FAIR      30  25  80 CALM      30.20S
KINSTON        FAIR      30  26  85 SW5       30.19S
NEW BERN       FAIR      37  28  70 SW8       30.20S
RICHLANDS      FAIR      33  28  81 CALM      30.20S
ROCKY MOUNT    NOT AVBL
WASHINGTON     FAIR      35  24  66 CALM      30.17F
WHITEVILLE     FAIR      33  29  85 CALM      30.21S

$$

AMZ130-135-150-152-154-156-158-170-250-252-270-ANZ085-086-088-633-658-670-200500-
MARINE OBSERVATIONS

STATION/POSITION TIME  TEMP    WIND        PRES    WAVE   SWELL
                       AIR SEA DIR/SP/G            HT/PER HT/PER
                 (UTC) (F)     (DEG/KT/KT) (MB)    (FT/S) (FT/S)
CHESAPEAKE LIGHT NOT AVBL
64 E VA BEACH    NOT AVBL
DUCK             NOT AVBL
2 E DUCK         NOT AVBL
OREGON INLET     NOT AVBL
13E OREGON INLT  NOT AVBL
HATTERAS CG      NOT AVBL
DIAMOND BUOY     NOT AVBL
CAPE LOOKOUT     NOT AVBL
BEAUFORT LAB     NOT AVBL
30 SE NEW RVR IN NOT AVBL
30 SE NEW RVR IN NOT AVBL
27 SE WRIGHTSVLE NOT AVBL
5 SE WRIGHTSVLE  NOT AVBL
225 S CAPE HAT   NOT AVBL
41 SE CHARLESTON NOT AVBL

$$



USA.gov is the U.S. government's official web portal to all federal, state and local government web resources and services.